TimeEDT,TemperatureF,Dew PointF,Humidity,Sea Level PressureIn,VisibilityMPH,Wind Direction,Wind SpeedMPH,Gust SpeedMPH,PrecipitationIn,Events,Conditions,WindDirDegrees,DateUTC
12:54 AM,57.0,43.0,59,30.30,10.0,Calm,Calm,-,N/A,,Mostly Cloudy,0,2013-05-26 04:54:00
1:54 AM,54.0,43.0,66,30.29,10.0,Variable,3.5,-,N/A,,Clear,0,2013-05-26 05:54:00
2:54 AM,51.1,41.0,68,30.30,10.0,ENE,3.5,-,N/A,,Clear,70,2013-05-26 06:54:00
3:54 AM,50.0,39.9,68,30.29,10.0,Calm,Calm,-,N/A,,Mostly Cloudy,0,2013-05-26 07:54:00
4:54 AM,50.0,39.0,66,30.29,10.0,East,3.5,-,N/A,,Mostly Cloudy,100,2013-05-26 08:54:00
5:54 AM,48.9,37.9,66,30.30,10.0,Calm,Calm,-,N/A,,Clear,0,2013-05-26 09:54:00
6:54 AM,48.0,39.0,71,30.32,10.0,ENE,3.5,-,N/A,,Clear,70,2013-05-26 10:54:00
7:54 AM,52.0,39.9,63,30.32,10.0,ESE,4.6,-,N/A,,Clear,120,2013-05-26 11:54:00
8:54 AM,55.9,37.0,49,30.32,10.0,ESE,6.9,-,N/A,,Clear,120,2013-05-26 12:54:00
9:54 AM,60.1,37.0,42,30.32,10.0,East,6.9,-,N/A,,Clear,90,2013-05-26 13:54:00
10:54 AM,62.1,37.9,41,30.32,10.0,East,4.6,-,N/A,,Clear,100,2013-05-26 14:54:00
11:54 AM,63.0,39.0,41,30.31,10.0,Calm,Calm,-,N/A,,Clear,0,2013-05-26 15:54:00
12:54 PM,66.0,39.9,38,30.31,10.0,Calm,Calm,-,N/A,,Clear,0,2013-05-26 16:54:00
1:54 PM,66.9,39.9,37,30.30,10.0,Calm,Calm,-,N/A,,Clear,0,2013-05-26 17:54:00
2:54 PM,68.0,39.9,36,30.28,10.0,Variable,3.5,-,N/A,,Clear,0,2013-05-26 18:54:00
3:54 PM,70.0,37.0,30,30.26,10.0,Calm,Calm,-,N/A,,Clear,0,2013-05-26 19:54:00
4:54 PM,66.9,43.0,42,30.26,10.0,Variable,3.5,-,N/A,,Clear,0,2013-05-26 20:54:00
5:54 PM,68.0,41.0,37,30.26,10.0,Calm,Calm,-,N/A,,Clear,0,2013-05-26 21:54:00
6:54 PM,66.9,39.0,36,30.24,10.0,Calm,Calm,-,N/A,,Clear,0,2013-05-26 22:54:00
7:54 PM,64.9,39.0,39,30.22,10.0,ESE,6.9,-,N/A,,Clear,120,2013-05-26 23:54:00
8:54 PM,64.0,41.0,43,30.21,10.0,ESE,5.8,-,N/A,,Overcast,120,2013-05-27 00:54:00
9:54 PM,62.1,41.0,46,30.22,10.0,ESE,3.5,-,N/A,,Partly Cloudy,110,2013-05-27 01:54:00
10:54 PM,62.1,43.0,50,30.24,10.0,SE,4.6,-,N/A,,Overcast,130,2013-05-27 02:54:00
11:54 PM,60.1,44.1,55,30.23,10.0,ESE,3.5,-,N/A,,Mostly Cloudy,120,2013-05-27 03:54:00